Location: Newark
(55.7681°N, 37.7103°E)
Time: 14:42:52
(UTC+00:00)

N. Korean satellite - Pass Details

Date: 24 October 2019
Orbit: 456 x 506 km, 97.2° (Epoch: 14 November)

Event Time Altitude Azimuth Distance (km) Brightness Sun altitude
Rises 15:18:27 0° 199° (SSW) 2,477 10.5 -10.4°
Reaches altitude 10° 15:20:49 10° 216° (SW) 1,613 9.8 -10.8°
Maximum altitude 15:23:32 21° 268° (W) 1,095 9.5 -11.2°
Drops below altitude 10° 15:26:18 10° 320° (NW) 1,642 9.8 -11.5°
Sets 15:28:44 0° 337° (NNW) 2,535 10.5 -11.9°
